User: anonymous   Login
Location: Unspecified
(0.0000°N, 0.0000°E)
Time: 19:07:59
(UTC+01:00)
Language:

CZ-4 R/B - Orbit

View from above orbital plane
View from above orbital plane
View from above satellite
View from above satellite

Ground track
Ground track

The orbit data is extracted from the following two-line orbital elements,

1 28059U 03049C   16042.71267966  .00000125  00000-0  42426-4 0  9997
2 28059  98.6310 270.8750 0049316 305.8083  93.8890 14.52421717652332
Epoch (UTC): 11 February 2016 17:06:15
Eccentricity: 0.0049316
inclination: 98.6310°
perigee height: 683 km
apogee height: 753 km
right ascension of ascending node: 270.8750°
argument of perigee: 305.8083°
revolutions per day: 14.52421717
mean anomaly at epoch: 93.8890°
orbit number at epoch: 65233

The dashed part of the orbit path shows where the satellite is in the earth's shadow,  

DLR